[[{"header":{"parameterUnit":"m.s-1","parameterCategory":1,"la1":30.2991,"la2":30.254,"lo1":-89.0895,"lo2":-89.0444,"dy":0.0017,"dx":0.0017,"nx":28,"ny":28,"refTime":"2024-07-23T09:00:00:Z","depth":0,"parameterNumber":2,"parameterNumberName":"U-component_of_WINDS"},"data":[0,0,0,0,0,0,0,0,0,0,0,0,0,0,0,0,0,0,0,0,0,0,0,0,0,0,0,0,0,0,0,0,0,0,0,0,0,0,0,0,0,0,0,0,0,0,0,0,0,0,0,0,0,0,0,0,0,0,-0.9068,-0.9068,0,-0.9073,-0.9073,-0.9073,-0.9049,-0.9048,-0.9047,-0.9047,-0.9053,-0.9054,-0.9055,0,0,0,0,0,0,0,0,0,0,0,0,0,-0.9039,-0.9039,-0.9068,-0.9068,-0.9068,-0.9073,-0.9073,-0.9073,-0.9049,-0.9048,-0.9047,-0.9046,-0.9053,-0.9054,-0.9055,0,0,0,0,0,0,0,0,0,0,0,0,0,-0.9048,-0.9039,-0.9068,-0.9056,-0.9055,-0.9073,-0.9073,-0.9073,-0.9049,-0.9048,-0.9047,-0.9046,-0.9053,-0.9054,-0.9055,-0.9084,0,0,-0.9059,-0.9059,0,0,0,0,0,0,0,0,-0.9048,-0.9049,-0.9058,-0.9057,-0.9056,-0.9059,-0.9065,-0.9077,-0.9049,-0.9052,-0.9047,-0.9045,-0.9056,-0.9057,-0.906,-0.9084,-0.9085,-0.9059,-0.906,-0.906,-0.9061,0,0,0,0,0,0,0,-0.9047,-0.9049,-0.907,-0.9058,-0.9057,-0.9052,-0.9052,-0.9067,-0.906,-0.9051,-0.9049,-0.905,-0.9055,-0.9059,-0.906,-0.9085,-0.9059,-0.906,-0.9061,-0.9061,-0.9134,-0.9135,0,0,0,0,0,0,-0.9048,-0.9049,-0.907,-0.907,-0.9049,-0.9053,-0.9053,-0.9059,-0.9059,-0.9058,-0.9051,-0.9049,-0.9058,-0.9059,-0.906,-0.9095,-0.906,-0.9061,-0.9062,-0.9133,-0.9135,-0.9136,0,0,0,0,0,0,-0.9047,-0.905,-0.9069,-0.9059,-0.9061,-0.9055,-0.9062,-0.906,-0.9064,-0.906,-0.9058,-0.9056,-0.9057,-0.9059,-0.9079,-0.9095,-0.9062,-0.9063,-0.9132,-0.9134,-0.9135,-0.9165,0,0,0,0,0,0,-0.9046,-0.905,-0.906,-0.9059,-0.9062,-0.9087,-0.9063,-0.9061,-0.9066,-0.9063,-0.9064,-0.9063,-0.9056,-0.9077,-0.908,-0.9096,-0.9064,-0.913,-0.9133,-0.9135,-0.9162,-0.9167,-0.9171,0,0,0,0,0,-0.9046,-0.9068,-0.9061,-0.9063,-0.9074,-0.9088,-0.9089,-0.908,-0.9067,-0.9078,-0.9076,-0.9063,-0.9093,-0.9079,-0.9082,-0.9099,-0.9129,-0.9132,-0.9135,-0.916,-0.9166,-0.9171,0,0,0,0,0,0,-0.9071,-0.9068,-0.906,-0.9082,-0.9086,-0.9084,-0.9097,-0.9087,-0.9094,-0.9091,-0.9081,-0.9081,-0.9103,-0.9103,-0.9088,-0.9128,-0.9109,-0.9112,-0.9127,-0.9133,-0.9138,-0.9137,-0.9065,0,0,0,0,0,-0.9079,-0.909,-0.9087,-0.9107,-0.9109,-0.9103,-0.9109,-0.9102,-0.9105,-0.9106,-0.9105,-0.9109,-0.9119,-0.9126,-0.9135,-0.9162,-0.9163,-0.9176,-0.918,-0.9184,-0.9187,-0.9203,-0.9209,-0.9145,-0.9145,-0.9145,0,0,-0.9096,-0.9096,-0.9103,-0.9113,-0.9114,-0.9126,-0.9104,-0.9118,-0.9127,-0.9108,-0.9127,-0.9127,-0.913,-0.9154,-0.9165,-0.9155,-0.9205,-0.9188,-0.9191,-0.9192,-0.9206,-0.9212,-0.9218,-0.9147,-0.9146,-0.9146,0,0,-0.9134,-0.9135,-0.9152,-0.9155,-0.9157,-0.9153,-0.9158,-0.9158,-0.9157,-0.9176,-0.9162,-0.9173,-0.9191,-0.9194,-0.9198,-0.9239,-0.9229,-0.9243,-0.9267,-0.9282,-0.9288,-0.9292,-0.9307,-0.9313,-0.9246,-0.9246,-0.9246,0,-0.9155,-0.9172,-0.9163,-0.9177,-0.9182,-0.9166,-0.9184,-0.9187,-0.9193,-0.9197,-0.9186,-0.9209,-0.921,-0.9236,-0.9246,-0.9249,-0.9255,-0.9242,-0.9287,-0.9292,-0.9296,-0.931,-0.9316,-0.9248,-0.9248,-0.9247,-0.9247,0,-0.9198,-0.9211,-0.9225,-0.9231,-0.9238,-0.9254,-0.9248,-0.9256,-0.9249,-0.9246,-0.9266,-0.9268,-0.9277,-0.9283,-0.9276,-0.9307,-0.9301,-0.9289,-0.927,-0.9304,-0.9317,-0.9323,-0.925,-0.925,-0.9249,-0.9249,0,0,-0.9251,-0.9253,-0.9258,-0.9261,-0.9264,-0.9274,-0.9291,-0.93,-0.9307,-0.9313,-0.9327,-0.9343,-0.9332,-0.9337,-0.933,-0.9344,-0.9377,-0.933,-0.933,-0.9339,-0.9413,-0.9423,-0.9429,-0.937,-0.9371,-0.9372,-0.9413,0,-0.9288,-0.9316,-0.9308,-0.9336,-0.9348,-0.9334,-0.9348,-0.9352,-0.9351,-0.9361,-0.936,-0.9372,-0.9356,-0.9359,-0.9372,-0.9371,-0.9392,-0.9367,-0.9384,-0.9385,-0.9384,-0.9436,-0.9446,-0.9484,-0.9418,-0.9419,-0.942,0,-0.9335,-0.9342,-0.9371,-0.9374,-0.9378,-0.9391,-0.94,-0.941,-0.9415,-0.9413,-0.9419,-0.9411,-0.9428,-0.9409,-0.9433,-0.9416,-0.9423,-0.9424,-0.9425,-0.9426,-0.9404,-0.9439,-0.9496,-0.9502,-0.9428,-0.9427,-0.9427,0,-0.9371,-0.9388,-0.9408,-0.9412,-0.9414,-0.9424,-0.9426,-0.9429,-0.9436,-0.9444,-0.9449,-0.9459,-0.9464,-0.9473,-0.9468,-0.9454,-0.9493,-0.9473,-0.9493,-0.9493,-0.9502,-0.9501,-0.9561,-0.9506,-0.9506,-0.9505,-0.9505,0,-0.9414,-0.9432,-0.9425,-0.9437,-0.9458,-0.945,-0.9471,-0.9471,-0.9475,-0.9488,-0.9476,-0.9488,-0.9481,-0.9493,-0.9489,-0.951,-0.9513,-0.9512,-0.9511,-0.9513,-0.9514,-0.9518,-0.9515,-0.9507,-0.9507,-0.9506,-0.9506,0,-0.9457,-0.9453,-0.9474,-0.9475,-0.9476,-0.9492,-0.9493,-0.9505,-0.9503,-0.952,-0.9523,-0.952,-0.9534,-0.953,-0.9545,-0.9542,-0.957,-0.9565,-0.9568,-0.9567,-0.9587,-0.9586,-0.9652,-0.9661,-0.9599,-0.96,-0.96,0,-0.9485,-0.9499,-0.9502,-0.951,-0.9512,-0.9525,-0.9532,-0.9525,-0.9533,-0.954,-0.9551,-0.9564,-0.9574,-0.9597,-0.9597,-0.9608,-0.9604,-0.9627,-0.9606,-0.9608,-0.9605,-0.9605,-0.9606,-0.9631,-0.9631,-0.9632,-0.9632,0,-0.9534,-0.9531,-0.9542,-0.9552,-0.956,-0.9568,-0.9575,-0.9582,-0.9576,-0.9585,-0.9599,-0.9607,-0.9623,-0.9636,-0.9647,-0.965,-0.9641,-0.9639,-0.9644,-0.9647,-0.9649,-0.9649,-0.958,-0.9638,-0.9637,-0.9637,-0.9636,-0.9636,-0.957,-0.9583,-0.9587,-0.9599,-0.9604,-0.9611,-0.9622,-0.9622,-0.9634,-0.9646,-0.9641,-0.9658,-0.9664,-0.9678,-0.9682,-0.9695,-0.9687,-0.9694,-0.9696,-0.9698,-0.9701,-0.9646,-0.9697,-0.9697,-0.9697,-0.9697,-0.9697,0,-0.9619,-0.9622,-0.9633,-0.9643,-0.9653,-0.9644,-0.9651,-0.9661,-0.9675,-0.9681,-0.9691,-0.9708,-0.9722,-0.9723,-0.9736,-0.9746,-0.9743,-0.975,-0.9749,-0.975,-0.9708,-0.9702,-0.9753,-0.9753,-0.9753,-0.9753,-0.9753,-0.9753,-0.9646,-0.9667,-0.9665,-0.9689,-0.9691,-0.9707,-0.9712,-0.9719,-0.9724,-0.9743,-0.9754,-0.9755,-0.976,-0.9773,-0.9785,-0.9785,-0.9791,-0.98,-0.9799,-0.9759,-0.9753,-0.9748,-0.9742,-0.9801,-0.9801,-0.984,-0.9841,-0.9841]},{"header":{"parameterUnit":"m.s-1","parameterCategory":1,"la1":30.2991,"la2":30.254,"lo1":-89.0895,"lo2":-89.0444,"dy":0.0017,"dx":0.0017,"nx":28,"ny":28,"refTime":"2024-07-23T09:00:00:Z","depth":0,"parameterNumber":3,"parameterNumberName":"V-component_of_WINDS"},"data":[0,0,0,0,0,0,0,0,0,0,0,0,0,0,0,0,0,0,0,0,0,0,0,0,0,0,0,0,0,0,0,0,0,0,0,0,0,0,0,0,0,0,0,0,0,0,0,0,0,0,0,0,0,0,0,0,0,0,1.9734,1.9734,0,1.9725,1.9725,1.9725,1.9739,1.974,1.974,1.9741,1.9728,1.9727,1.9726,0,0,0,0,0,0,0,0,0,0,0,0,0,1.9761,1.976,1.9734,1.9734,1.9734,1.9725,1.9725,1.9725,1.9739,1.974,1.974,1.9741,1.9728,1.9727,1.9726,0,0,0,0,0,0,0,0,0,0,0,0,0,1.975,1.976,1.9734,1.974,1.9741,1.9725,1.9725,1.9725,1.9739,1.974,1.974,1.9741,1.9728,1.9727,1.9726,1.9704,0,0,1.9722,1.9722,0,0,0,0,0,0,0,0,1.9751,1.9749,1.9739,1.974,1.974,1.9734,1.973,1.9718,1.9739,1.9739,1.9741,1.9742,1.9729,1.9728,1.9724,1.9703,1.9702,1.9722,1.9721,1.9721,1.9721,0,0,0,0,0,0,0,1.9752,1.975,1.9731,1.9739,1.974,1.9742,1.9742,1.9728,1.973,1.9739,1.974,1.9739,1.9729,1.9726,1.9724,1.9702,1.9722,1.9721,1.972,1.972,1.9662,1.9661,0,0,0,0,0,0,1.9752,1.975,1.9731,1.973,1.9748,1.9741,1.974,1.9735,1.973,1.973,1.9739,1.974,1.9727,1.9726,1.9724,1.9697,1.9721,1.972,1.9719,1.9663,1.9662,1.9661,0,0,0,0,0,0,1.9753,1.975,1.9731,1.9741,1.9738,1.974,1.9734,1.9735,1.9731,1.973,1.973,1.9735,1.9728,1.9726,1.9709,1.9697,1.9719,1.9718,1.9664,1.9662,1.9661,1.9644,0,0,0,0,0,0,1.9753,1.975,1.9742,1.974,1.9738,1.9717,1.9733,1.9734,1.9729,1.9731,1.9726,1.9726,1.9728,1.971,1.9708,1.9696,1.9717,1.9665,1.9663,1.9662,1.9645,1.9642,1.9639,0,0,0,0,0,1.9754,1.9737,1.9742,1.9739,1.9728,1.9716,1.9715,1.9719,1.9728,1.972,1.9719,1.9726,1.9699,1.9709,1.9705,1.9693,1.9665,1.9663,1.9662,1.9647,1.9643,1.9639,0,0,0,0,0,0,1.9736,1.9737,1.9742,1.9724,1.972,1.9719,1.9708,1.9715,1.9707,1.9709,1.9713,1.9712,1.9694,1.9692,1.9703,1.9671,1.9683,1.9681,1.9673,1.9669,1.9666,1.9667,1.9716,0,0,0,0,0,1.973,1.9722,1.9722,1.9706,1.9704,1.9707,1.9702,1.9705,1.9701,1.9699,1.9697,1.9692,1.9682,1.9676,1.9667,1.9645,1.9644,1.9635,1.9632,1.9629,1.9627,1.9615,1.9611,1.9655,1.9655,1.9655,0,0,1.9718,1.9717,1.9711,1.9703,1.97,1.969,1.9705,1.9694,1.9686,1.9697,1.9681,1.968,1.9674,1.9655,1.9646,1.9653,1.9615,1.9627,1.9625,1.9624,1.9613,1.9609,1.9605,1.9653,1.9654,1.9654,0,0,1.9689,1.9688,1.9675,1.9672,1.9669,1.9671,1.9668,1.9666,1.9665,1.965,1.9658,1.9649,1.9632,1.9628,1.9623,1.9594,1.96,1.9591,1.9575,1.9564,1.956,1.9557,1.9546,1.9543,1.9589,1.9589,1.9589,0,1.9674,1.966,1.9667,1.9656,1.9651,1.9662,1.9648,1.9645,1.9638,1.9635,1.9642,1.9622,1.9619,1.9599,1.9592,1.9588,1.9584,1.9591,1.956,1.9557,1.9555,1.9544,1.9541,1.9588,1.9588,1.9588,1.9588,0,1.9641,1.9632,1.9621,1.9616,1.961,1.9598,1.9601,1.9595,1.96,1.96,1.9585,1.9581,1.9572,1.9568,1.9571,1.9548,1.9552,1.956,1.9572,1.9549,1.954,1.9536,1.9586,1.9587,1.9587,1.9587,0,0,1.96,1.96,1.9596,1.9594,1.9591,1.9583,1.9571,1.9563,1.9557,1.9552,1.9542,1.9528,1.9535,1.953,1.9533,1.9524,1.9501,1.9532,1.9532,1.9526,1.9475,1.9469,1.9464,1.9505,1.9504,1.9504,1.9475,0,1.9572,1.9552,1.9558,1.9537,1.9529,1.9539,1.9528,1.9525,1.9526,1.9517,1.9518,1.9508,1.9518,1.9515,1.9506,1.9506,1.949,1.9508,1.9494,1.9493,1.9495,1.9459,1.9453,1.9426,1.9472,1.9471,1.9471,0,1.9537,1.9532,1.9511,1.951,1.9507,1.9497,1.949,1.9483,1.9479,1.948,1.9475,1.9481,1.9468,1.9481,1.9463,1.9474,1.9469,1.9468,1.9467,1.9465,1.948,1.9456,1.9418,1.9414,1.9465,1.9465,1.9466,0,1.9509,1.9497,1.9483,1.9481,1.948,1.9473,1.9472,1.9469,1.9464,1.9458,1.9455,1.9447,1.9442,1.9436,1.9438,1.9448,1.942,1.9433,1.9419,1.9419,1.9412,1.9413,1.9372,1.941,1.941,1.941,1.941,0,1.9477,1.9463,1.9471,1.9462,1.9447,1.9454,1.9438,1.9438,1.9436,1.9427,1.9435,1.9426,1.9431,1.9422,1.9424,1.9408,1.9406,1.9406,1.9407,1.9405,1.9405,1.9401,1.9403,1.9409,1.9409,1.9409,1.9409,0,1.9443,1.9447,1.9433,1.9433,1.9433,1.9422,1.9422,1.9414,1.9415,1.9404,1.9401,1.9403,1.9394,1.9396,1.9385,1.9386,1.9367,1.937,1.9368,1.9369,1.9355,1.9356,1.931,1.9304,1.9346,1.9345,1.9345,0,1.9422,1.9412,1.9412,1.9407,1.9406,1.9398,1.9393,1.9399,1.9394,1.9389,1.9381,1.9372,1.9366,1.9349,1.9349,1.934,1.9343,1.9327,1.9342,1.934,1.9342,1.9343,1.9342,1.9324,1.9324,1.9323,1.9323,0,1.9384,1.9387,1.938,1.9375,1.937,1.9365,1.9362,1.9357,1.9363,1.9356,1.9347,1.9342,1.9331,1.9322,1.9314,1.9312,1.9318,1.9319,1.9315,1.9313,1.9313,1.9313,1.936,1.932,1.932,1.932,1.932,1.9321,1.9355,1.9347,1.9346,1.9339,1.9337,1.9334,1.9326,1.9327,1.932,1.9313,1.9317,1.9306,1.9302,1.9293,1.929,1.9281,1.9287,1.9281,1.928,1.9278,1.9277,1.9315,1.9279,1.928,1.928,1.928,1.928,0,1.9318,1.9318,1.9311,1.9307,1.9301,1.9309,1.9305,1.9299,1.929,1.9287,1.9281,1.927,1.9261,1.9261,1.9253,1.9246,1.9248,1.9243,1.9243,1.9243,1.9272,1.9276,1.9241,1.9241,1.9241,1.9241,1.9241,1.9241,1.9297,1.9284,1.9287,1.9273,1.9273,1.9263,1.9261,1.9257,1.9255,1.9243,1.9236,1.9237,1.9235,1.9226,1.9219,1.9219,1.9215,1.9209,1.921,1.9237,1.9241,1.9244,1.9248,1.9208,1.9208,1.9181,1.9181,1.9181]}]]